K4LEN Weather Reports


time (UTC)temp
F
wind
direction
speed
knots
gust
knots
rain 1hr
in
rain 24hr
in
rain mn
in
humidity
%
barometer
mb
20260510204345 83 260 2.6 2.6 0.00 0.00 0.00 45 1019.0
20260510203344 81 237 0.9 0.9 0.00 0.00 0.00 47 1019.0
20260510202340 79 291 2.6 2.6 0.00 0.00 0.00 52 1019.3
20260510201340 81 328 3.5 4.3 0.00 0.00 0.00 52 1019.6
20260510200335 82 286 1.7 1.7 0.00 0.00 0.00 42 1019.8
20260510195333 82 299 1.7 1.7 0.00 0.00 0.00 45 1019.5
20260510194331 82 284 1.7 1.7 0.00 0.00 0.00 42 1019.7
20260510193327 81 218 0.9 0.9 0.00 0.00 0.00 42 1019.6
20260510192324 82 240 0.0 0.9 0.00 0.00 0.00 41 1019.8
20260510191323 81 218 4.3 5.2 0.00 0.00 0.00 46 1019.9
20260510190319 81 240 0.9 1.7 0.00 0.00 0.00 45 1019.8
20260510185318 82 234 0.9 0.9 0.00 0.00 0.00 45 1019.8
20260510184318 80 254 0.9 0.9 0.00 0.00 0.00 47 1019.9
20260510183314 81 239 0.9 1.7 0.00 0.00 0.00 48 1019.8
20260510182313 80 226 2.6 2.6 0.00 0.00 0.00 47 1020.2
20260510181311 80 264 0.0 0.0 0.00 0.00 0.00 49 1020.1
20260510180310 80 267 1.7 2.6 0.00 0.00 0.00 49 1020.1
20260510175309 80 320 2.6 4.3 0.00 0.00 0.00 49 1020.6
20260510174303 80 343 1.7 1.7 0.00 0.00 0.00 49 1020.5
20260510173300 81 257 0.9 0.9 0.00 0.00 0.00 49 1020.4
20260510172258 80 216 3.5 4.3 0.00 0.00 0.00 52 1020.6
20260510171257 78 235 1.7 1.7 0.00 0.00 0.00 52 1020.5
20260510170257 77 170 0.9 1.7 0.00 0.00 0.00 53 1020.6
20260510165254 77 222 3.5 4.3 0.00 0.00 0.00 56 1020.7
20260510164255 79 227 2.6 2.6 0.00 0.00 0.00 58 1020.7
20260510163250 79 290 1.7 1.7 0.00 0.00 0.00 57 1020.6
20260510162248 77 271 1.7 2.6 0.00 0.00 0.00 59 1020.4
20260510161245 76 278 1.7 1.7 0.00 0.00 0.00 73 1020.6
20260510160244 74 207 4.3 5.2 0.00 0.00 0.00 74 1020.6
20260510155242 74 204 3.5 4.3 0.00 0.00 0.00 75 1020.7
20260510154239 75 213 3.5 4.3 0.00 0.00 0.00 81 1020.5
20260510153236 73 240 2.6 2.6 0.00 0.00 0.00 82 1020.8
20260510152236 73 232 1.7 1.7 0.00 0.00 0.00 84 1020.8
20260510151231 72 225 0.9 0.9 0.00 0.00 0.00 85 1020.5
20260510150228 71 216 3.5 4.3 0.00 0.00 0.00 85 1020.6
20260510145226 72 200 3.5 4.3 0.00 0.00 0.00 86 1020.4
20260510144226 71 224 4.3 5.2 0.00 0.00 0.00 88 1020.6
20260510143223 70 228 1.7 1.7 0.00 0.00 0.00 90 1020.4
20260510142221 69 235 2.6 4.3 0.00 0.00 0.00 92 1020.6
20260510141217 69 228 2.6 2.6 0.00 0.00 0.00 91 1020.5
20260510140213 68 211 4.3 6.1 0.00 0.00 0.00 93 1020.5
20260510135210 67 220 2.6 2.6 0.00 0.00 0.00 95 1020.4
20260510134205 66 246 0.0 0.0 0.00 0.00 0.00 99 1020.4
20260510133202 65 286 2.6 4.3 0.00 0.00 0.00 99 1020.2
20260510132201 64 271 0.0 0.0 0.00 0.00 0.00 99 1020.3
20260510131157 65 255 0.0 0.0 0.00 0.00 0.00 99 1020.0
20260510130156 62 254 0.0 0.0 0.00 0.00 0.00 99 1020.4
20260510125154 61 256 0.0 0.0 0.00 0.00 0.00 99 1020.4
20260510124154 59 253 0.0 0.0 0.00 0.00 0.00 99 1020.4
20260510123152 58 248 0.0 0.9 0.00 0.00 0.00 99 1020.5
20260510122150 57 246 0.0 0.0 0.00 0.00 0.00 99 1020.0
20260510121150 55 246 0.0 0.0 0.00 0.00 0.00 99 1020.0
20260510120149 54 245 0.0 0.0 0.00 0.00 0.00 99 1020.0
20260510115150 54 247 0.0 0.0 0.00 0.00 0.00 99 1019.7
20260510114148 53 247 0.0 0.0 0.00 0.00 0.00 99 1019.4
20260510113146 53 252 0.0 0.9 0.00 0.00 0.00 99 1018.9
20260510112146 53 250 0.0 0.0 0.00 0.00 0.00 99 1018.7
20260510111144 52 245 0.0 0.0 0.00 0.00 0.00 99 1018.4
20260510110143 52 245 0.0 0.0 0.00 0.00 0.00 99 1018.6
20260510105138 52 251 0.0 0.0 0.00 0.00 0.00 99 1018.4
20260510104137 52 251 0.0 0.0 0.00 0.00 0.00 99 1018.6
20260510103137 52 251 0.0 0.0 0.00 0.00 0.00 99 1018.4
20260510102134 52 251 0.0 0.0 0.00 0.00 0.00 99 1018.2
20260510101129 52 251 0.0 0.0 0.00 0.00 0.00 99 1018.0
20260510100128 53 251 0.0 0.0 0.00 0.00 0.00 99 1017.9
20260510095124 53 251 0.0 0.0 0.00 0.00 0.00 99 1018.0
20260510094125 53 251 0.0 0.0 0.00 0.00 0.00 99 1017.9
20260510093124 53 252 0.0 0.0 0.00 0.00 0.00 99 1017.9
20260510092121 53 250 0.0 0.0 0.00 0.00 0.00 99 1017.6
20260510091119 53 250 0.0 0.0 0.00 0.00 0.00 99 1017.7
20260510090118 53 251 0.9 0.9 0.00 0.00 0.00 99 1017.8
20260510085115 53 252 0.0 0.0 0.00 0.00 0.00 99 1017.7
20260510084114 54 252 0.0 0.0 0.00 0.00 0.00 99 1017.6
20260510083113 53 252 0.0 0.0 0.00 0.00 0.00 99 1017.7
20260510082111 53 252 0.0 0.0 0.00 0.00 0.00 99 1017.7
20260510081107 54 252 0.0 0.0 0.00 0.00 0.00 99 1017.7
20260510080104 54 252 0.0 0.0 0.00 0.00 0.00 99 1017.5
20260510075104 54 252 0.0 0.0 0.00 0.00 0.00 99 1017.3
20260510074103 54 252 0.0 0.0 0.00 0.00 0.00 99 1017.4
20260510073102 54 252 0.0 0.0 0.00 0.00 0.00 99 1016.9
20260510072100 55 252 0.0 0.0 0.00 0.00 0.00 99 1016.9
20260510071100 55 252 0.0 0.0 0.00 0.00 0.00 99 1017.1
20260510070100 55 251 0.0 0.0 0.00 0.00 0.00 99 1017.1
20260510065058 55 252 0.0 0.0 0.00 0.00 0.00 99 1017.2
20260510064058 55 251 0.0 0.0 0.00 0.00 0.00 99 1017.0
20260510063057 55 251 0.0 0.0 0.00 0.00 0.00 99 1017.1
20260510062054 55 252 0.0 0.0 0.00 0.00 0.00 99 1016.8
20260510061054 55 251 0.0 0.0 0.00 0.00 0.00 99 1017.2
20260510060052 55 251 0.0 0.0 0.00 0.00 0.00 99 1017.1
20260510055053 55 251 0.0 0.0 0.00 0.00 0.00 99 1017.1
20260510054049 56 252 0.0 0.0 0.00 0.00 0.00 99 1017.2
20260510053046 55 252 0.0 0.0 0.00 0.00 0.00 99 1017.2
20260510052044 56 252 0.0 0.0 0.00 0.00 0.00 99 1017.1
20260510051042 55 252 0.0 0.0 0.00 0.00 0.00 99 1017.2
20260510050042 56 252 0.0 0.0 0.00 0.00 0.00 99 1017.4
20260510045041 55 252 0.0 0.0 0.00 0.00 0.00 99 1017.3
20260510044036 56 252 0.0 0.0 0.00 0.00 0.00 99 1017.2
20260510043033 56 252 0.0 0.0 0.00 0.00 0.00 99 1017.2
20260510042027 55 252 0.0 0.0 0.00 0.00 0.00 99 1017.0
20260510041022 56 252 0.0 0.0 0.00 0.00 0.00 99 1017.1
20260510040021 56 252 0.0 0.0 0.00 0.00 0.00 99 1017.3
20260510035016 56 252 0.0 0.0 0.00 0.00 0.00 99 1017.4
20260510034012 57 252 0.0 0.0 0.00 0.00 0.00 98 1017.1
20260510033006 57 252 0.9 0.9 0.00 0.00 0.00 98 1017.1
20260510032002 57 251 0.0 0.0 0.00 0.00 0.00 98 1017.1
20260510031000 57 251 0.0 0.0 0.00 0.00 0.00 97 1017.1
20260510025958 58 251 0.0 0.0 0.00 0.00 0.00 97 1017.2
20260510024953 58 252 0.0 0.0 0.00 0.00 0.00 96 1016.6
20260510023951 59 252 0.0 0.0 0.00 0.00 0.00 96 1016.7
20260510022951 59 252 0.0 0.0 0.00 0.00 0.00 95 1016.6
20260510021949 60 253 0.9 0.9 0.00 0.00 0.00 95 1016.7
20260510020944 60 248 0.0 0.0 0.00 0.00 0.00 95 1016.6
20260510015940 60 248 0.0 0.0 0.00 0.00 0.00 94 1016.1
20260510014937 61 248 0.0 0.0 0.00 0.00 0.00 92 1015.9
20260510013938 62 250 0.0 0.0 0.00 0.00 0.00 90 1015.8
20260510012934 63 250 0.0 0.0 0.00 0.00 0.00 89 1015.4
20260510011930 64 250 0.0 0.0 0.00 0.00 0.00 88 1015.1
20260510010927 65 254 0.9 0.9 0.00 0.00 0.00 87 1015.0
20260510005927 66 252 0.0 0.0 0.00 0.00 0.00 84 1014.9
20260510004927 67 257 0.9 1.7 0.00 0.00 0.00 83 1014.7
20260510003922 69 249 0.0 0.0 0.00 0.00 0.00 77 1014.5
20260510002918 70 249 0.0 0.0 0.00 0.00 0.00 74 1014.4
20260510001917 72 254 0.0 0.0 0.00 0.00 0.00 69 1014.4
20260510000912 73 254 0.0 0.0 0.00 0.00 0.00 66 1014.6
20260509235911 74 254 0.0 0.0 0.00 0.00 0.00 64 1014.3
20260509234910 75 264 0.9 0.9 0.00 0.00 0.00 60 1014.5
20260509233905 75 253 0.0 0.0 0.00 0.00 0.00 60 1014.7
20260509232904 75 266 1.7 1.7 0.00 0.00 0.00 61 1014.5
20260509231903 76 253 0.9 0.9 0.00 0.00 0.00 56 1014.4
20260509230858 77 255 0.9 0.9 0.00 0.00 0.00 56 1014.3
20260509225856 77 246 0.9 0.9 0.00 0.00 0.00 55 1014.3
20260509224855 76 254 0.9 0.9 0.00 0.00 0.00 58 1014.3
20260509223854 76 248 0.0 0.9 0.00 0.00 0.00 54 1014.1
20260509222854 77 226 1.7 1.7 0.00 0.00 0.00 54 1014.1
20260509221850 76 252 0.9 0.9 0.00 0.00 0.00 54 1013.9
20260509220849 76 199 0.0 0.0 0.00 0.00 0.00 55 1014.0
20260509215846 75 210 2.6 2.6 0.00 0.00 0.00 54 1013.9
20260509214846 75 227 1.7 1.7 0.00 0.00 0.00 55 1013.7
20260509213846 76 228 1.7 2.6 0.00 0.00 0.00 58 1013.8
20260509212845 77 247 0.9 0.9 0.00 0.00 0.00 56 1013.5
20260509211844 77 250 1.7 1.7 0.00 0.00 0.00 59 1014.0
20260509210842 77 356 3.5 5.2 0.00 0.00 0.00 58 1014.0
20260509205839 76 254 0.9 1.7 0.00 0.00 0.00 62 1014.0